sat.trackr.live / text

‹ back to catalog

STARLINK-31575

NORAD 59471 · 2024-068S

PAYLOAD ACTIVE UNKNOWN

§ Identity

Operator
Country
US
Launch date
2024-04-10
Launch site
AFETR
Launch vehicle
Mass (kg)
RCS (m²)

Purposes: comms

External: N2YO · Heavens-Above · Gunter

§ Orbital elements

Epoch: 2026-05-25T04:39:08.648640Z

Period
94.27 min
Inclination
43.0041°
Eccentricity
0.0001421
Mean motion
15.27573141 rev/d
Perigee alt
482.1 km
Apogee alt
484.0 km
Semi-major
6,861.2 km
B*
2.4588e-5
RAAN
318.9518°
Arg perigee
271.4628°
Mean anomaly
88.6061°
Rev number
12,026

§ Raw data

STARLINK-315751 59471U 24068S   26145.19385010  .00000414  00000+0  24588-4 0  99902 59471  43.0041 318.9518 0001421 271.4628  88.6061 15.27573141120269

JSON: /api/v1/satellites/59471 · /tle

For live sub-satellite position, see the globe view (requires WebGL).

§ Visibility from observer

Set your observer location to see the next 7 days of passes ≥ 10°. The values pass through the URL so the page stays shareable.

No JS? Fill the form by hand. The geolocation button needs JavaScript.